VKG902 LGSA-EKCH

Flight info

Callsign VKG902
Flight time 3h 34m
Altitude 34000
Route SOKRI1S SOKRI UY151 DDM DCT KUGGI DCT TALAS DCT LONTA UM749 UDVAR DCT PARAK DCT PATAK DCT REGLI DCT XIDNA DCT ROE M743 TIDVU TIDVU3D
Aircraft A321/M-VGDW/C

Departure

Time 2026-04-25 11:54
Airport Chania International Airport (LGSA)

Arrival

Time 2026-04-25 15:28
Airport Copenhagen Kastrup Airport (EKCH)
Time Latitude Longitude Altitude Speed Heading
2026-04-25 11:24 35.53803 24.14253 498 ft 0 kts 22°
2026-04-25 11:43 35.53791 24.14247 488 ft 3 kts 22°
2026-04-25 11:43 35.53772 24.14238 493 ft 3 kts 22°
2026-04-25 11:44 35.53754 24.14229 487 ft 3 kts 29°
2026-04-25 11:44 35.53739 24.14215 490 ft 3 kts 64°
2026-04-25 11:44 35.53735 24.14194 495 ft 3 kts 103°
2026-04-25 11:44 35.53738 24.14182 488 ft 0 kts 112°
2026-04-25 11:47 35.53737 24.14184 488 ft 2 kts 111°
2026-04-25 11:47 35.53722 24.14233 488 ft 10 kts 110°
2026-04-25 11:47 35.53692 24.14324 491 ft 9 kts 112°
2026-04-25 11:48 35.53664 24.14357 493 ft 5 kts 160°
2026-04-25 11:48 35.53622 24.14350 492 ft 11 kts 198°
2026-04-25 11:48 35.53558 24.14362 492 ft 9 kts 129°
2026-04-25 11:48 35.53524 24.14455 496 ft 17 kts 112°
2026-04-25 11:49 35.53471 24.14619 493 ft 24 kts 112°
2026-04-25 11:49 35.53411 24.14803 494 ft 23 kts 112°
2026-04-25 11:49 35.53344 24.15009 490 ft 29 kts 112°
2026-04-25 11:49 35.53271 24.15233 493 ft 27 kts 112°
2026-04-25 11:50 35.53202 24.15444 486 ft 26 kts 111°
2026-04-25 11:50 35.53139 24.15638 493 ft 24 kts 111°
2026-04-25 11:50 35.53069 24.15854 486 ft 29 kts 111°
2026-04-25 11:50 35.52995 24.16080 489 ft 28 kts 112°
2026-04-25 11:51 35.52926 24.16293 490 ft 26 kts 111°
2026-04-25 11:51 35.52861 24.16491 498 ft 24 kts 111°
2026-04-25 11:51 35.52801 24.16675 498 ft 22 kts 111°
2026-04-25 11:51 35.52753 24.16826 495 ft 13 kts 111°
2026-04-25 11:52 35.52702 24.16871 498 ft 8 kts 179°
2026-04-25 11:52 35.52656 24.16852 491 ft 6 kts 201°
2026-04-25 11:52 35.52598 24.16824 496 ft 9 kts 202°
2026-04-25 11:52 35.52588 24.16767 494 ft 5 kts 291°
2026-04-25 11:53 35.52589 24.16763 493 ft 0 kts 291°
2026-04-25 11:53 35.52592 24.16755 491 ft 6 kts 291°
2026-04-25 11:53 35.52694 24.16438 499 ft 74 kts 292°
2026-04-25 11:53 35.52959 24.15624 494 ft 129 kts 291°
2026-04-25 11:54 35.53355 24.14428 508 ft 169 kts 293°
2026-04-25 11:54 35.53962 24.12681 1323 ft 163 kts 300°
2026-04-25 11:54 35.54572 24.10420 2215 ft 172 kts 292°
2026-04-25 11:55 35.54957 24.08933 2442 ft 192 kts 292°
2026-04-25 11:55 35.55397 24.07290 2576 ft 213 kts 292°
2026-04-25 11:55 35.55879 24.05484 2718 ft 232 kts 293°
2026-04-25 11:55 35.56382 24.03498 2835 ft 256 kts 292°
2026-04-25 11:56 35.56931 24.01344 3235 ft 270 kts 292°
2026-04-25 11:56 35.57521 23.99156 3851 ft 276 kts 294°
2026-04-25 11:56 35.58174 23.96920 4509 ft 280 kts 293°
2026-04-25 11:56 35.58940 23.94721 5123 ft 280 kts 308°
2026-04-25 11:57 35.60316 23.93093 5777 ft 273 kts 335°
2026-04-25 11:57 35.62098 23.92397 6406 ft 270 kts 355°
2026-04-25 11:57 35.63964 23.92032 7028 ft 273 kts 355°
2026-04-25 11:57 35.65854 23.91649 7666 ft 276 kts 354°
2026-04-25 11:58 35.67757 23.91270 8292 ft 279 kts 355°
2026-04-25 11:58 35.69687 23.90900 8887 ft 283 kts 355°
2026-04-25 11:58 35.71646 23.90544 9516 ft 286 kts 355°
2026-04-25 11:58 35.73618 23.90170 10072 ft 290 kts 356°
2026-04-25 11:59 35.75674 23.89751 10255 ft 309 kts 354°
2026-04-25 11:59 35.77862 23.89328 10375 ft 328 kts 354°
2026-04-25 11:59 35.80078 23.88478 10508 ft 351 kts 334°
2026-04-25 12:00 35.84334 23.84842 10938 ft 388 kts 326°
2026-04-25 12:00 35.86519 23.82862 11508 ft 391 kts 326°
2026-04-25 12:00 35.90936 23.78823 12523 ft 399 kts 327°
2026-04-25 12:01 35.93173 23.76782 13046 ft 402 kts 326°
2026-04-25 12:01 35.95426 23.74736 13621 ft 403 kts 326°
2026-04-25 12:01 35.97686 23.72692 14173 ft 403 kts 327°
2026-04-25 12:01 35.99950 23.70650 14683 ft 404 kts 327°
2026-04-25 12:02 36.04517 23.66533 15617 ft 408 kts 327°
2026-04-25 12:02 36.06818 23.64451 16086 ft 411 kts 327°
2026-04-25 12:02 36.09128 23.62354 16524 ft 413 kts 327°
2026-04-25 12:03 36.11447 23.60244 16976 ft 415 kts 327°
2026-04-25 12:03 36.13781 23.58121 17423 ft 417 kts 327°
2026-04-25 12:03 36.16125 23.55989 17890 ft 420 kts 327°
2026-04-25 12:03 36.18487 23.53837 18352 ft 422 kts 327°
2026-04-25 12:04 36.20861 23.51677 18716 ft 425 kts 327°
2026-04-25 12:04 36.23268 23.49537 19064 ft 426 kts 331°
2026-04-25 12:04 36.25833 23.47835 19408 ft 424 kts 340°
2026-04-25 12:04 36.28623 23.46671 19732 ft 423 kts 349°
2026-04-25 12:05 36.31512 23.46023 20072 ft 423 kts 354°
2026-04-25 12:05 36.34438 23.45436 20439 ft 426 kts 354°
2026-04-25 12:05 36.37371 23.44834 20790 ft 428 kts 353°
2026-04-25 12:05 36.40317 23.44223 21126 ft 431 kts 353°
2026-04-25 12:06 36.43284 23.43605 21466 ft 433 kts 353°
2026-04-25 12:06 36.46266 23.42986 21820 ft 435 kts 354°
2026-04-25 12:06 36.49256 23.42368 22158 ft 437 kts 353°
2026-04-25 12:06 36.52262 23.41746 22523 ft 439 kts 353°
2026-04-25 12:07 36.55285 23.41114 22808 ft 442 kts 353°
2026-04-25 12:07 36.58289 23.40486 23130 ft 444 kts 353°
2026-04-25 12:07 36.61387 23.39840 23463 ft 446 kts 353°
2026-04-25 12:07 36.64412 23.39209 23747 ft 448 kts 353°
2026-04-25 12:08 36.67492 23.38570 24020 ft 450 kts 353°
2026-04-25 12:08 36.70592 23.37931 24281 ft 452 kts 353°
2026-04-25 12:08 36.73703 23.37292 24533 ft 454 kts 353°
2026-04-25 12:08 36.76831 23.36644 24762 ft 457 kts 353°
2026-04-25 12:09 36.79968 23.35987 24990 ft 459 kts 353°
2026-04-25 12:09 36.83127 23.35323 25246 ft 461 kts 353°
2026-04-25 12:09 36.86306 23.34655 25510 ft 463 kts 353°
2026-04-25 12:09 36.89485 23.33988 25770 ft 465 kts 353°
2026-04-25 12:10 36.92678 23.33320 26027 ft 466 kts 353°
2026-04-25 12:10 36.95887 23.32651 26295 ft 467 kts 353°
2026-04-25 12:10 36.99095 23.31984 26641 ft 467 kts 352°
2026-04-25 12:10 37.02289 23.31318 26990 ft 466 kts 352°
2026-04-25 12:11 37.05484 23.30650 27335 ft 466 kts 352°
2026-04-25 12:11 37.08679 23.29980 27664 ft 465 kts 352°
2026-04-25 12:11 37.11878 23.29309 27996 ft 465 kts 352°
2026-04-25 12:11 37.15062 23.28639 28332 ft 465 kts 352°
2026-04-25 12:12 37.18245 23.27968 28651 ft 464 kts 352°
2026-04-25 12:12 37.20359 23.27522 28869 ft 464 kts 352°
2026-04-25 12:12 37.24615 23.26622 29273 ft 464 kts 352°
2026-04-25 12:12 37.27805 23.25946 29567 ft 465 kts 352°
2026-04-25 12:13 37.30988 23.25271 29876 ft 464 kts 352°
2026-04-25 12:13 37.34174 23.24595 30187 ft 464 kts 352°
2026-04-25 12:13 37.37352 23.23922 30459 ft 464 kts 352°
2026-04-25 12:13 37.40530 23.23250 30742 ft 463 kts 352°
2026-04-25 12:14 37.43723 23.22814 31030 ft 460 kts
2026-04-25 12:14 37.46910 23.23024 31316 ft 457 kts
2026-04-25 12:14 37.50005 23.23854 31622 ft 454 kts 18°
2026-04-25 12:14 37.52951 23.25286 31933 ft 451 kts 27°
2026-04-25 12:15 37.55672 23.27128 32229 ft 449 kts 30°
2026-04-25 12:15 37.58409 23.29013 32541 ft 448 kts 30°
2026-04-25 12:15 37.61152 23.30896 32839 ft 447 kts 30°
2026-04-25 12:15 37.63876 23.32763 33137 ft 446 kts 30°
2026-04-25 12:16 37.66597 23.34627 33505 ft 442 kts 30°
2026-04-25 12:16 37.69284 23.36466 33925 ft 438 kts 30°
2026-04-25 12:16 37.74636 23.40042 34034 ft 434 kts 25°
2026-04-25 12:17 37.77513 23.41235 34031 ft 437 kts 14°
2026-04-25 12:17 37.80548 23.41726 34036 ft 441 kts
2026-04-25 12:17 37.83616 23.41478 34035 ft 445 kts 353°
2026-04-25 12:17 37.86627 23.40487 34030 ft 450 kts 345°
2026-04-25 12:18 37.92506 23.37875 34036 ft 450 kts 345°
2026-04-25 12:18 37.98422 23.35259 34036 ft 451 kts 345°
2026-04-25 12:19 38.07310 23.31312 34042 ft 451 kts 345°
2026-04-25 12:20 38.13228 23.28681 34033 ft 450 kts 346°
2026-04-25 12:20 38.19139 23.26053 34045 ft 449 kts 346°
2026-04-25 12:21 38.25041 23.23430 34050 ft 449 kts 346°
2026-04-25 12:21 38.30937 23.20797 34052 ft 449 kts 346°
2026-04-25 12:22 38.36831 23.18153 34056 ft 449 kts 346°
2026-04-25 12:22 38.42722 23.15503 34051 ft 448 kts 346°
2026-04-25 12:23 38.48601 23.12865 34052 ft 448 kts 346°
2026-04-25 12:23 38.54484 23.10228 34040 ft 448 kts 346°
2026-04-25 12:24 38.60326 23.07595 34054 ft 447 kts 345°
2026-04-25 12:24 38.66185 23.04945 34069 ft 446 kts 345°
2026-04-25 12:25 38.72034 23.02301 34070 ft 446 kts 345°
2026-04-25 12:25 38.77882 22.99646 34071 ft 445 kts 345°
2026-04-25 12:26 38.83713 22.96992 34064 ft 445 kts 345°
2026-04-25 12:26 38.89543 22.94334 34071 ft 444 kts 345°
2026-04-25 12:27 38.95360 22.91685 34072 ft 443 kts 345°
2026-04-25 12:27 39.01166 22.89042 34071 ft 443 kts 345°
2026-04-25 12:28 39.06971 22.86398 34059 ft 442 kts 345°
2026-04-25 12:28 39.12728 22.83769 34069 ft 441 kts 345°
2026-04-25 12:29 39.18499 22.81123 34070 ft 440 kts 345°
2026-04-25 12:29 39.24253 22.78469 34070 ft 439 kts 345°
2026-04-25 12:30 39.30003 22.75814 34069 ft 439 kts 345°
2026-04-25 12:30 39.35761 22.73164 34069 ft 439 kts 344°
2026-04-25 12:31 39.41510 22.70508 34050 ft 439 kts 344°
2026-04-25 12:31 39.47260 22.67849 34051 ft 438 kts 344°
2026-04-25 12:32 39.53001 22.65187 34037 ft 438 kts 344°
2026-04-25 12:32 39.58728 22.62520 34042 ft 437 kts 344°
2026-04-25 12:33 39.64459 22.59860 34040 ft 437 kts 344°
2026-04-25 12:33 39.70187 22.57197 34036 ft 437 kts 344°
2026-04-25 12:34 39.75910 22.54531 34019 ft 437 kts 344°
2026-04-25 12:34 39.81593 22.51873 34035 ft 436 kts 344°
2026-04-25 12:35 39.87309 22.49191 34042 ft 437 kts 344°
2026-04-25 12:35 39.93028 22.46506 34040 ft 436 kts 344°
2026-04-25 12:36 39.98740 22.43817 34027 ft 437 kts 344°
2026-04-25 12:36 40.04457 22.41128 34032 ft 437 kts 344°
2026-04-25 12:37 40.10171 22.38432 34037 ft 437 kts 344°
2026-04-25 12:37 40.15845 22.35747 34039 ft 437 kts 344°
2026-04-25 12:38 40.21565 22.33038 34034 ft 436 kts 344°
2026-04-25 12:38 40.27276 22.30332 34037 ft 437 kts 344°
2026-04-25 12:39 40.32989 22.27617 34043 ft 437 kts 344°
2026-04-25 12:39 40.38699 22.24895 34047 ft 437 kts 344°
2026-04-25 12:40 40.44410 22.22172 34047 ft 437 kts 344°
2026-04-25 12:40 40.50126 22.19449 34047 ft 437 kts 344°
2026-04-25 12:41 40.55833 22.16714 34047 ft 436 kts 343°
2026-04-25 12:41 40.61535 22.13972 34051 ft 436 kts 344°
2026-04-25 12:42 40.67200 22.11252 34038 ft 436 kts 344°
2026-04-25 12:42 40.72898 22.08513 34039 ft 436 kts 344°
2026-04-25 12:43 40.78597 22.05760 34044 ft 436 kts 343°
2026-04-25 12:43 40.87141 22.01641 34039 ft 436 kts 343°
2026-04-25 12:44 40.92831 21.98885 34033 ft 435 kts 343°
2026-04-25 12:45 41.01366 21.94739 34038 ft 436 kts 343°
2026-04-25 12:45 41.08942 21.91048 34034 ft 436 kts 343°
2026-04-25 12:46 41.15572 21.87909 34034 ft 434 kts 344°
2026-04-25 12:46 41.20347 21.85675 34043 ft 434 kts 344°
2026-04-25 12:47 41.26003 21.83002 34047 ft 434 kts 343°
2026-04-25 12:47 41.31690 21.80306 34031 ft 434 kts 343°
2026-04-25 12:48 41.37380 21.77603 34029 ft 434 kts 343°
2026-04-25 12:48 41.43065 21.74894 34035 ft 434 kts 343°
2026-04-25 12:49 41.48749 21.72188 34034 ft 434 kts 343°
2026-04-25 12:49 41.54421 21.69474 34042 ft 433 kts 343°
2026-04-25 12:50 41.60098 21.66747 34040 ft 433 kts 343°
2026-04-25 12:50 41.65771 21.64028 34045 ft 432 kts 343°
2026-04-25 12:51 41.71428 21.61308 34036 ft 432 kts 343°
2026-04-25 12:51 41.77056 21.58597 34033 ft 432 kts 343°
2026-04-25 12:52 41.82717 21.55870 34040 ft 431 kts 343°
2026-04-25 12:52 41.88357 21.53138 34041 ft 431 kts 342°
2026-04-25 12:53 41.93996 21.50396 34039 ft 431 kts 342°
2026-04-25 12:53 41.99641 21.47659 34041 ft 430 kts 342°
2026-04-25 12:54 42.05262 21.44933 34044 ft 430 kts 342°
2026-04-25 12:54 42.10885 21.42199 34047 ft 429 kts 342°
2026-04-25 12:55 42.15547 21.39926 34052 ft 429 kts 343°
2026-04-25 12:55 42.22163 21.37212 34050 ft 426 kts 347°
2026-04-25 12:56 42.27906 21.35236 34050 ft 426 kts 347°
2026-04-25 12:56 42.33640 21.33238 34052 ft 425 kts 347°
2026-04-25 12:57 42.39349 21.31138 34058 ft 425 kts 346°
2026-04-25 12:57 42.45047 21.29002 34068 ft 425 kts 346°
2026-04-25 12:58 42.50749 21.26874 34077 ft 424 kts 346°
2026-04-25 12:58 42.56446 21.24755 34079 ft 424 kts 346°
2026-04-25 12:59 42.62145 21.22633 34078 ft 424 kts 346°
2026-04-25 12:59 42.67834 21.20518 34076 ft 424 kts 346°
2026-04-25 13:00 42.72564 21.18756 34070 ft 424 kts 346°
2026-04-25 13:00 42.79222 21.16261 34067 ft 424 kts 346°
2026-04-25 13:01 42.84869 21.14141 34063 ft 424 kts 346°
2026-04-25 13:01 42.90551 21.12006 34035 ft 424 kts 345°
2026-04-25 13:02 42.96250 21.09856 34046 ft 425 kts 345°
2026-04-25 13:02 43.01961 21.07708 34046 ft 425 kts 345°
2026-04-25 13:03 43.07672 21.05549 34046 ft 426 kts 345°
2026-04-25 13:03 43.13398 21.03423 34048 ft 426 kts 347°
2026-04-25 13:04 43.19184 21.01665 34053 ft 426 kts 349°
2026-04-25 13:04 43.24990 21.00060 34068 ft 426 kts 348°
2026-04-25 13:05 43.30790 20.98403 34064 ft 425 kts 348°
2026-04-25 13:05 43.36532 20.96701 34059 ft 425 kts 347°
2026-04-25 13:06 43.42308 20.94969 34061 ft 424 kts 347°
2026-04-25 13:06 43.48076 20.93250 34066 ft 424 kts 347°
2026-04-25 13:07 43.53848 20.91532 34062 ft 424 kts 347°
2026-04-25 13:07 43.59607 20.89819 34054 ft 423 kts 347°
2026-04-25 13:08 43.65359 20.88084 34061 ft 423 kts 347°
2026-04-25 13:08 43.71115 20.86349 34044 ft 424 kts 347°
2026-04-25 13:09 43.76847 20.84625 34033 ft 424 kts 347°
2026-04-25 13:09 43.82628 20.82888 34045 ft 425 kts 347°
2026-04-25 13:10 43.88402 20.81146 34050 ft 425 kts 347°
2026-04-25 13:10 43.94174 20.79401 34047 ft 424 kts 347°
2026-04-25 13:11 43.99951 20.77656 34052 ft 424 kts 347°
2026-04-25 13:11 44.05722 20.75904 34045 ft 424 kts 346°
2026-04-25 13:12 44.11490 20.74147 34035 ft 425 kts 346°
2026-04-25 13:12 44.16299 20.72680 34028 ft 425 kts 346°
2026-04-25 13:13 44.23055 20.70622 34042 ft 425 kts 346°
2026-04-25 13:13 44.28839 20.68844 34038 ft 426 kts 346°
2026-04-25 13:14 44.34584 20.67081 34030 ft 426 kts 346°
2026-04-25 13:14 44.40376 20.65305 34029 ft 426 kts 346°
2026-04-25 13:15 44.46164 20.63523 34031 ft 426 kts 346°
2026-04-25 13:15 44.51952 20.61737 34046 ft 426 kts 345°
2026-04-25 13:16 44.57745 20.59945 34044 ft 426 kts 345°
2026-04-25 13:16 44.63522 20.58160 34038 ft 425 kts 346°
2026-04-25 13:17 44.69306 20.56369 34036 ft 425 kts 345°
2026-04-25 13:17 44.75073 20.54572 34040 ft 425 kts 345°
2026-04-25 13:18 44.80840 20.52767 34030 ft 425 kts 345°
2026-04-25 13:18 44.86614 20.50963 34021 ft 425 kts 345°
2026-04-25 13:19 44.92381 20.49158 34024 ft 425 kts 345°
2026-04-25 13:19 44.96197 20.47964 34012 ft 425 kts 345°
2026-04-25 13:20 45.03888 20.45549 34006 ft 425 kts 345°
2026-04-25 13:20 45.09661 20.43729 34004 ft 425 kts 345°
2026-04-25 13:21 45.15433 20.41909 34014 ft 425 kts 345°
2026-04-25 13:21 45.21200 20.40084 34008 ft 425 kts 345°
2026-04-25 13:22 45.26977 20.38254 33998 ft 425 kts 345°
2026-04-25 13:23 45.35642 20.35498 34012 ft 425 kts 344°
2026-04-25 13:23 45.41414 20.33662 34003 ft 425 kts 344°
2026-04-25 13:24 45.47188 20.31824 34006 ft 425 kts 344°
2026-04-25 13:24 45.52963 20.29976 34003 ft 425 kts 344°
2026-04-25 13:25 45.58736 20.28126 34007 ft 425 kts 344°
2026-04-25 13:25 45.64511 20.26267 33994 ft 426 kts 343°
2026-04-25 13:26 45.70296 20.24401 33989 ft 426 kts 343°
2026-04-25 13:26 45.76079 20.22532 33986 ft 426 kts 343°
2026-04-25 13:27 45.81866 20.20656 34005 ft 426 kts 343°
2026-04-25 13:27 45.87651 20.18784 33997 ft 426 kts 343°
2026-04-25 13:28 45.93435 20.16912 33996 ft 426 kts 343°
2026-04-25 13:28 45.99221 20.15029 33985 ft 426 kts 343°
2026-04-25 13:29 46.05008 20.13140 33993 ft 427 kts 343°
2026-04-25 13:29 46.10803 20.11249 33988 ft 427 kts 343°
2026-04-25 13:30 46.19350 20.07981 33984 ft 424 kts 337°
2026-04-25 13:31 46.27722 20.03881 34005 ft 423 kts 337°
2026-04-25 13:31 46.33305 20.01149 34002 ft 423 kts 337°
2026-04-25 13:32 46.38873 19.98399 33996 ft 423 kts 337°
2026-04-25 13:32 46.44432 19.95592 33997 ft 422 kts 336°
2026-04-25 13:33 46.49967 19.92761 34008 ft 422 kts 336°
2026-04-25 13:33 46.55468 19.89945 34008 ft 421 kts 336°
2026-04-25 13:34 46.60101 19.87583 34005 ft 421 kts 336°
2026-04-25 13:34 46.66521 19.84304 34000 ft 421 kts 336°
2026-04-25 13:35 46.71155 19.81944 34022 ft 421 kts 336°
2026-04-25 13:35 46.76673 19.79118 34005 ft 420 kts 336°
2026-04-25 13:36 46.82153 19.76292 34009 ft 420 kts 336°
2026-04-25 13:36 46.87659 19.73438 34006 ft 420 kts 336°
2026-04-25 13:37 46.93165 19.70584 33978 ft 420 kts 336°
2026-04-25 13:37 46.98669 19.67742 33999 ft 419 kts 336°
2026-04-25 13:38 47.04173 19.64893 33985 ft 419 kts 336°
2026-04-25 13:38 47.09664 19.62036 33976 ft 419 kts 335°
2026-04-25 13:39 47.15160 19.59168 33977 ft 419 kts 335°
2026-04-25 13:39 47.20659 19.56304 33973 ft 419 kts 335°
2026-04-25 13:40 47.26158 19.53422 33969 ft 420 kts 335°
2026-04-25 13:40 47.31668 19.50527 33969 ft 420 kts 335°
2026-04-25 13:41 47.37138 19.47644 33971 ft 420 kts 335°
2026-04-25 13:41 47.42648 19.44737 33981 ft 420 kts 335°
2026-04-25 13:42 47.48154 19.41831 33981 ft 421 kts 335°
2026-04-25 13:42 47.53660 19.38912 33983 ft 421 kts 335°
2026-04-25 13:43 47.59174 19.35989 33983 ft 420 kts 335°
2026-04-25 13:43 47.64680 19.33067 33981 ft 420 kts 335°
2026-04-25 13:44 47.70184 19.30144 34004 ft 419 kts 335°
2026-04-25 13:44 47.75633 19.27229 33993 ft 419 kts 335°
2026-04-25 13:45 47.81115 19.24280 33980 ft 419 kts 335°
2026-04-25 13:45 47.86599 19.21339 33986 ft 419 kts 335°
2026-04-25 13:46 47.92055 19.18408 33996 ft 419 kts 334°
2026-04-25 13:46 47.97536 19.15445 33992 ft 419 kts 334°
2026-04-25 13:47 48.03016 19.12481 33984 ft 419 kts 334°
2026-04-25 13:47 48.08500 19.09514 33982 ft 419 kts 334°
2026-04-25 13:48 48.13985 19.06538 33974 ft 420 kts 334°
2026-04-25 13:48 48.19487 19.03549 33992 ft 420 kts 334°
2026-04-25 13:49 48.24982 19.00551 33984 ft 420 kts 334°
2026-04-25 13:49 48.30477 18.97537 33977 ft 420 kts 334°
2026-04-25 13:50 48.35972 18.94530 33976 ft 420 kts 334°
2026-04-25 13:50 48.41418 18.91546 34005 ft 419 kts 334°
2026-04-25 13:51 48.46899 18.88530 33992 ft 418 kts 334°
2026-04-25 13:51 48.52362 18.85519 33981 ft 418 kts 333°
2026-04-25 13:52 48.57819 18.82496 33994 ft 418 kts 333°
2026-04-25 13:52 48.63272 18.79468 33985 ft 418 kts 333°
2026-04-25 13:53 48.68734 18.76436 33999 ft 418 kts 333°
2026-04-25 13:53 48.74178 18.73411 33996 ft 416 kts 333°
2026-04-25 13:54 48.79622 18.70371 33993 ft 416 kts 333°
2026-04-25 13:54 48.85055 18.67336 34000 ft 416 kts 333°
2026-04-25 13:55 48.90490 18.64287 33998 ft 416 kts 333°
2026-04-25 13:55 48.95935 18.61224 33985 ft 417 kts 333°
2026-04-25 13:56 49.01338 18.58188 33978 ft 417 kts 333°
2026-04-25 13:56 49.06780 18.55126 33976 ft 417 kts 333°
2026-04-25 13:57 49.12221 18.52045 33967 ft 416 kts 333°
2026-04-25 13:57 49.17651 18.48955 33999 ft 417 kts 333°
2026-04-25 13:58 49.23091 18.45862 33956 ft 417 kts 333°
2026-04-25 13:58 49.28522 18.42765 33937 ft 416 kts 333°
2026-04-25 13:59 49.33968 18.39650 33951 ft 419 kts 333°
2026-04-25 13:59 49.39430 18.36531 33956 ft 419 kts 333°
2026-04-25 14:00 49.43965 18.33925 33986 ft 418 kts 333°
2026-04-25 14:00 49.50332 18.30273 33977 ft 417 kts 333°
2026-04-25 14:01 49.55770 18.27146 33968 ft 417 kts 332°
2026-04-25 14:01 49.61162 18.24016 33952 ft 417 kts 332°
2026-04-25 14:02 49.66590 18.20861 33945 ft 417 kts 332°
2026-04-25 14:02 49.72032 18.17699 33943 ft 418 kts 332°
2026-04-25 14:03 49.77475 18.14535 33942 ft 418 kts 332°
2026-04-25 14:03 49.82918 18.11367 33946 ft 418 kts 332°
2026-04-25 14:04 49.88360 18.08186 33953 ft 418 kts 332°
2026-04-25 14:04 49.93802 18.04996 33986 ft 418 kts 332°
2026-04-25 14:05 49.99240 18.01790 33983 ft 417 kts 332°
2026-04-25 14:05 50.04666 17.98593 33973 ft 417 kts 332°
2026-04-25 14:06 50.10100 17.95456 33954 ft 417 kts 333°
2026-04-25 14:06 50.15510 17.92351 33961 ft 416 kts 333°
2026-04-25 14:07 50.20942 17.89217 33988 ft 416 kts 333°
2026-04-25 14:07 50.26372 17.86064 33970 ft 416 kts 333°
2026-04-25 14:08 50.31789 17.82907 33957 ft 415 kts 332°
2026-04-25 14:08 50.37210 17.79734 33959 ft 415 kts 333°
2026-04-25 14:09 50.42625 17.76565 33950 ft 415 kts 333°
2026-04-25 14:09 50.48043 17.73395 33961 ft 416 kts 334°
2026-04-25 14:10 50.51635 17.71286 33954 ft 416 kts 334°
2026-04-25 14:10 50.58878 17.67022 33938 ft 416 kts 334°
2026-04-25 14:11 50.64258 17.63838 33938 ft 416 kts 334°
2026-04-25 14:11 50.69709 17.60608 33935 ft 416 kts 334°
2026-04-25 14:12 50.75094 17.57421 33946 ft 416 kts 335°
2026-04-25 14:12 50.80520 17.54197 33929 ft 417 kts 335°
2026-04-25 14:13 50.85948 17.50966 33931 ft 417 kts 335°
2026-04-25 14:13 50.91371 17.47720 33927 ft 417 kts 335°
2026-04-25 14:14 50.96796 17.44462 33928 ft 417 kts 335°
2026-04-25 14:14 51.02218 17.41200 33946 ft 416 kts 334°
2026-04-25 14:15 51.07629 17.37940 33945 ft 416 kts 334°
2026-04-25 14:15 51.13047 17.34669 33943 ft 416 kts 334°
2026-04-25 14:16 51.18444 17.31391 33946 ft 415 kts 334°
2026-04-25 14:16 51.23848 17.28106 33948 ft 415 kts 334°
2026-04-25 14:17 51.29252 17.24829 33952 ft 415 kts 334°
2026-04-25 14:17 51.34652 17.21542 33944 ft 415 kts 334°
2026-04-25 14:18 51.40046 17.18239 33930 ft 415 kts 334°
2026-04-25 14:18 51.45407 17.14946 33915 ft 415 kts 334°
2026-04-25 14:19 51.50799 17.11625 33943 ft 415 kts 334°
2026-04-25 14:19 51.56194 17.08301 33947 ft 415 kts 334°
2026-04-25 14:20 51.61583 17.04981 33944 ft 414 kts 334°
2026-04-25 14:20 51.66946 17.01658 33942 ft 413 kts 334°
2026-04-25 14:21 51.72308 16.98326 33940 ft 412 kts 334°
2026-04-25 14:21 51.77673 16.95030 33932 ft 412 kts 334°
2026-04-25 14:22 51.83031 16.91764 33956 ft 411 kts 334°
2026-04-25 14:22 51.88385 16.88481 33940 ft 411 kts 334°
2026-04-25 14:23 51.93722 16.85179 33935 ft 410 kts 334°
2026-04-25 14:23 51.99053 16.81871 33930 ft 410 kts 334°
2026-04-25 14:24 52.04351 16.78581 33928 ft 410 kts 334°
2026-04-25 14:24 52.09675 16.75269 33938 ft 409 kts 334°
2026-04-25 14:25 52.15000 16.71951 33938 ft 409 kts 334°
2026-04-25 14:25 52.19427 16.69192 33924 ft 409 kts 334°
2026-04-25 14:26 52.24739 16.65864 33921 ft 409 kts 334°
2026-04-25 14:26 52.30902 16.61986 33914 ft 408 kts 334°
2026-04-25 14:27 52.36203 16.58643 33907 ft 408 kts 334°
2026-04-25 14:27 52.40645 16.55838 33890 ft 408 kts 334°
2026-04-25 14:28 52.45943 16.52482 33894 ft 408 kts 334°
2026-04-25 14:28 52.51190 16.49144 33888 ft 407 kts 334°
2026-04-25 14:29 52.56480 16.45784 33894 ft 407 kts 334°
2026-04-25 14:29 52.61760 16.42424 33924 ft 407 kts 334°
2026-04-25 14:30 52.67036 16.39050 33905 ft 406 kts 334°
2026-04-25 14:30 52.74933 16.33977 33893 ft 406 kts 334°
2026-04-25 14:31 52.80194 16.30590 33884 ft 405 kts 334°
2026-04-25 14:31 52.85447 16.27206 33886 ft 405 kts 334°
2026-04-25 14:32 52.90689 16.23814 33899 ft 402 kts 333°
2026-04-25 14:32 52.95888 16.20437 33896 ft 400 kts 333°
2026-04-25 14:33 53.01059 16.17063 33891 ft 400 kts 333°
2026-04-25 14:33 53.06234 16.13685 33887 ft 399 kts 333°
2026-04-25 14:34 53.11368 16.10324 33882 ft 399 kts 333°
2026-04-25 14:34 53.16535 16.06930 33930 ft 399 kts 333°
2026-04-25 14:35 53.21695 16.03541 33905 ft 398 kts 333°
2026-04-25 14:35 53.26839 16.00161 33899 ft 396 kts 333°
2026-04-25 14:36 53.31958 15.96777 33906 ft 395 kts 333°
2026-04-25 14:36 53.37059 15.93394 33902 ft 394 kts 333°
2026-04-25 14:37 53.42158 15.90009 33892 ft 394 kts 333°
2026-04-25 14:37 53.47242 15.86624 33893 ft 391 kts 332°
2026-04-25 14:38 53.52286 15.83255 33880 ft 390 kts 332°
2026-04-25 14:38 53.57331 15.79874 33877 ft 390 kts 332°
2026-04-25 14:39 53.62373 15.76495 33876 ft 390 kts 332°
2026-04-25 14:39 53.67409 15.73114 33881 ft 389 kts 332°
2026-04-25 14:40 53.72434 15.69725 33939 ft 389 kts 331°
2026-04-25 14:40 53.77442 15.66336 33886 ft 386 kts 331°
2026-04-25 14:41 53.82429 15.62948 33880 ft 386 kts 331°
2026-04-25 14:41 53.87421 15.59552 33874 ft 387 kts 331°
2026-04-25 14:42 53.91567 15.56731 33876 ft 387 kts 331°
2026-04-25 14:42 53.97377 15.52779 33866 ft 387 kts 331°
2026-04-25 14:43 54.02363 15.49367 33898 ft 386 kts 330°
2026-04-25 14:43 54.07336 15.45935 33887 ft 386 kts 330°
2026-04-25 14:44 54.12318 15.42502 33864 ft 386 kts 330°
2026-04-25 14:44 54.17288 15.39066 33864 ft 386 kts 330°
2026-04-25 14:45 54.22261 15.35631 33852 ft 386 kts 330°
2026-04-25 14:45 54.27242 15.32183 33851 ft 386 kts 330°
2026-04-25 14:46 54.32211 15.28722 33853 ft 384 kts 329°
2026-04-25 14:46 54.37163 15.25266 33842 ft 383 kts 329°
2026-04-25 14:47 54.41268 15.22386 33825 ft 384 kts 329°
2026-04-25 14:47 54.47017 15.18355 33824 ft 384 kts 329°
2026-04-25 14:48 54.51968 15.14866 33597 ft 384 kts 329°
2026-04-25 14:48 54.54441 15.13129 33337 ft 385 kts 329°
2026-04-25 14:48 54.56927 15.11384 33090 ft 385 kts 329°
2026-04-25 14:49 54.59408 15.09636 32979 ft 386 kts 329°
2026-04-25 14:49 54.61900 15.07872 32352 ft 387 kts 329°
2026-04-25 14:49 54.64390 15.06107 31732 ft 388 kts 329°
2026-04-25 14:49 54.66884 15.04331 31143 ft 389 kts 328°
2026-04-25 14:50 54.69396 15.02541 30572 ft 391 kts 328°
2026-04-25 14:50 54.71919 15.00744 30002 ft 393 kts 328°
2026-04-25 14:50 54.74451 14.98940 29349 ft 395 kts 328°
2026-04-25 14:50 54.77000 14.97122 28695 ft 397 kts 328°
2026-04-25 14:51 54.79555 14.95300 28057 ft 398 kts 329°
2026-04-25 14:51 54.82126 14.93462 27500 ft 399 kts 329°
2026-04-25 14:51 54.84697 14.91622 27049 ft 402 kts 329°
2026-04-25 14:51 54.87286 14.89767 26466 ft 403 kts 328°
2026-04-25 14:52 54.89881 14.87904 25817 ft 405 kts 328°
2026-04-25 14:52 54.92487 14.86030 25157 ft 406 kts 328°
2026-04-25 14:52 54.95106 14.84145 24502 ft 406 kts 329°
2026-04-25 14:52 54.96835 14.82898 24098 ft 406 kts 329°
2026-04-25 14:53 55.00314 14.80388 23254 ft 402 kts 329°
2026-04-25 14:53 55.02810 14.78434 22575 ft 392 kts 323°
2026-04-25 14:53 55.05048 14.75836 22019 ft 381 kts 314°
2026-04-25 14:53 55.06934 14.72659 21953 ft 375 kts 307°
2026-04-25 14:54 55.08501 14.69040 21583 ft 371 kts 299°
2026-04-25 14:54 55.09730 14.65099 21130 ft 368 kts 295°
2026-04-25 14:54 55.10896 14.61137 20652 ft 366 kts 295°
2026-04-25 14:54 55.12055 14.57193 20195 ft 365 kts 295°
2026-04-25 14:55 55.13209 14.53258 19711 ft 363 kts 295°
2026-04-25 14:55 55.14357 14.49326 19188 ft 361 kts 295°
2026-04-25 14:55 55.15491 14.45428 18676 ft 359 kts 295°
2026-04-25 14:55 55.16620 14.41533 18192 ft 358 kts 295°
2026-04-25 14:56 55.17742 14.37664 17631 ft 355 kts 295°
2026-04-25 14:56 55.18854 14.33830 17062 ft 352 kts 295°
2026-04-25 14:56 55.19959 14.30019 16576 ft 350 kts 295°
2026-04-25 14:56 55.21060 14.26217 16107 ft 349 kts 295°
2026-04-25 14:57 55.22155 14.22425 15633 ft 347 kts 295°
2026-04-25 14:57 55.23239 14.18664 15183 ft 345 kts 295°
2026-04-25 14:57 55.24306 14.14959 14737 ft 344 kts 296°
2026-04-25 14:57 55.25380 14.11226 14280 ft 342 kts 296°
2026-04-25 14:58 55.26450 14.07498 13909 ft 341 kts 296°
2026-04-25 14:58 55.27513 14.03789 13554 ft 340 kts 296°
2026-04-25 14:58 55.28572 14.00091 13109 ft 339 kts 296°
2026-04-25 14:58 55.29625 13.96406 12635 ft 337 kts 296°
2026-04-25 14:59 55.30672 13.92737 12131 ft 335 kts 296°
2026-04-25 14:59 55.31710 13.89094 11662 ft 332 kts 296°
2026-04-25 14:59 55.32738 13.85476 11210 ft 330 kts 296°
2026-04-25 14:59 55.33760 13.81876 10757 ft 329 kts 296°
2026-04-25 15:00 55.34783 13.78272 10309 ft 328 kts 296°
2026-04-25 15:00 55.35797 13.74693 9902 ft 326 kts 296°
2026-04-25 15:00 55.36802 13.71137 9673 ft 319 kts 296°
2026-04-25 15:00 55.37757 13.67748 9498 ft 298 kts 296°
2026-04-25 15:01 55.38637 13.64619 9396 ft 272 kts 296°
2026-04-25 15:01 55.39441 13.61767 9285 ft 250 kts 296°
2026-04-25 15:01 55.40187 13.59123 9172 ft 236 kts 296°
2026-04-25 15:01 55.41037 13.56670 8888 ft 234 kts 305°
2026-04-25 15:02 55.42113 13.54532 8579 ft 234 kts 313°
2026-04-25 15:02 55.43383 13.52718 8273 ft 235 kts 319°
2026-04-25 15:02 55.44689 13.50974 7947 ft 235 kts 318°
2026-04-25 15:02 55.45990 13.49225 7628 ft 235 kts 319°
2026-04-25 15:03 55.47275 13.47494 7299 ft 235 kts 319°
2026-04-25 15:03 55.48568 13.45750 6963 ft 234 kts 319°
2026-04-25 15:03 55.49855 13.44008 6636 ft 233 kts 319°
2026-04-25 15:03 55.51135 13.42278 6281 ft 232 kts 319°
2026-04-25 15:04 55.52413 13.40549 5884 ft 231 kts 319°
2026-04-25 15:04 55.53682 13.38828 5571 ft 229 kts 319°
2026-04-25 15:04 55.54945 13.37114 5348 ft 229 kts 319°
2026-04-25 15:04 55.56205 13.35395 5137 ft 228 kts 317°
2026-04-25 15:05 55.57180 13.33259 5009 ft 225 kts 295°
2026-04-25 15:05 55.57496 13.30566 4819 ft 229 kts 271°
2026-04-25 15:05 55.57052 13.27817 4643 ft 238 kts 252°
2026-04-25 15:06 55.55669 13.22659 4271 ft 223 kts 252°
2026-04-25 15:06 55.55013 13.20233 4089 ft 215 kts 252°
2026-04-25 15:06 55.54381 13.17890 3901 ft 208 kts 252°
2026-04-25 15:06 55.53771 13.15608 3702 ft 205 kts 253°
2026-04-25 15:07 55.53164 13.13331 3528 ft 204 kts 253°
2026-04-25 15:07 55.52558 13.11067 3356 ft 203 kts 252°
2026-04-25 15:07 55.51957 13.08822 3234 ft 202 kts 252°
2026-04-25 15:07 55.51356 13.06573 3154 ft 202 kts 252°
2026-04-25 15:08 55.50756 13.04333 3060 ft 202 kts 252°
2026-04-25 15:08 55.50159 13.02082 2983 ft 201 kts 256°
2026-04-25 15:08 55.49867 12.99819 3014 ft 181 kts 273°
2026-04-25 15:08 55.50007 12.97708 2998 ft 172 kts 289°
2026-04-25 15:09 55.50517 12.95835 2993 ft 169 kts 303°
2026-04-25 15:09 55.51167 12.94108 2997 ft 169 kts 302°
2026-04-25 15:09 55.52471 12.90630 2993 ft 170 kts 302°
2026-04-25 15:10 55.53126 12.88879 2929 ft 170 kts 303°
2026-04-25 15:10 55.53751 12.87207 2780 ft 156 kts 303°
2026-04-25 15:10 55.54864 12.84228 2402 ft 135 kts 303°
2026-04-25 15:11 55.55372 12.82868 2221 ft 131 kts 303°
2026-04-25 15:11 55.55869 12.81534 2048 ft 129 kts 302°
2026-04-25 15:11 55.56361 12.80213 1880 ft 128 kts 302°
2026-04-25 15:12 55.57337 12.77593 1517 ft 127 kts 302°
2026-04-25 15:12 55.57823 12.76288 1344 ft 127 kts 302°
2026-04-25 15:12 55.58144 12.75426 1226 ft 127 kts 302°
2026-04-25 15:12 55.58471 12.74546 1107 ft 126 kts 302°
2026-04-25 15:13 55.59108 12.72831 881 ft 126 kts 303°
2026-04-25 15:13 55.60079 12.70243 538 ft 125 kts 303°
2026-04-25 15:13 55.60720 12.68550 315 ft 125 kts 301°
2026-04-25 15:14 55.61032 12.67673 195 ft 128 kts 300°
2026-04-25 15:14 55.61519 12.66349 52 ft 127 kts 301°
2026-04-25 15:14 55.62005 12.65086 112 ft 125 kts 302°
2026-04-25 15:14 55.62528 12.63763 662 ft 136 kts 302°
2026-04-25 15:15 55.63106 12.62229 1217 ft 166 kts 302°
2026-04-25 15:15 55.63876 12.60507 2014 ft 189 kts 320°
2026-04-25 15:15 55.65123 12.59620 2779 ft 205 kts 346°
2026-04-25 15:15 55.66568 12.60030 2979 ft 221 kts 16°
2026-04-25 15:16 55.67892 12.61380 3091 ft 224 kts 26°
2026-04-25 15:16 55.69153 12.63040 3361 ft 228 kts 32°
2026-04-25 15:16 55.70375 12.68472 3883 ft 260 kts 86°
2026-04-25 15:17 55.69423 12.74722 3904 ft 266 kts 113°
2026-04-25 15:17 55.68512 12.77573 3571 ft 266 kts 122°
2026-04-25 15:17 55.67478 12.80287 3259 ft 265 kts 125°
2026-04-25 15:18 55.66412 12.82944 3038 ft 262 kts 125°
2026-04-25 15:18 55.64284 12.88219 3003 ft 263 kts 125°
2026-04-25 15:18 55.63217 12.90850 3002 ft 263 kts 125°
2026-04-25 15:19 55.62150 12.93480 2993 ft 263 kts 126°
2026-04-25 15:19 55.61451 12.95218 3010 ft 264 kts 126°
2026-04-25 15:19 55.60045 12.98800 3004 ft 266 kts 126°
2026-04-25 15:19 55.58997 13.01499 3003 ft 266 kts 126°
2026-04-25 15:20 55.57965 13.04161 3000 ft 266 kts 125°
2026-04-25 15:20 55.56871 13.06802 2990 ft 265 kts 137°
2026-04-25 15:20 55.55390 13.08642 2994 ft 257 kts 165°
2026-04-25 15:20 55.53687 13.09237 2987 ft 244 kts 191°
2026-04-25 15:21 55.52088 13.08666 2982 ft 228 kts 214°
2026-04-25 15:21 55.50814 13.07201 2984 ft 213 kts 234°
2026-04-25 15:21 55.49954 13.05165 2984 ft 203 kts 252°
2026-04-25 15:21 55.49531 13.02859 2984 ft 195 kts 268°
2026-04-25 15:22 55.49449 13.00483 2983 ft 193 kts 278°
2026-04-25 15:22 55.49717 12.98249 2998 ft 178 kts 294°
2026-04-25 15:22 55.50328 12.96331 3003 ft 179 kts 303°
2026-04-25 15:22 55.50999 12.94552 2992 ft 172 kts 303°
2026-04-25 15:23 55.51658 12.92810 2990 ft 168 kts 303°
2026-04-25 15:23 55.52274 12.91177 2991 ft 151 kts 303°
2026-04-25 15:23 55.52812 12.89748 2989 ft 127 kts 303°
2026-04-25 15:23 55.53279 12.88505 2983 ft 119 kts 303°
2026-04-25 15:24 55.53731 12.87289 2890 ft 119 kts 303°
2026-04-25 15:24 55.54177 12.86082 2693 ft 117 kts 303°
2026-04-25 15:24 55.54639 12.84840 2529 ft 130 kts 303°
2026-04-25 15:24 55.54954 12.83993 2402 ft 120 kts 303°
2026-04-25 15:25 55.55541 12.82416 2172 ft 112 kts 303°
2026-04-25 15:25 55.55965 12.81279 2018 ft 110 kts 303°
2026-04-25 15:25 55.56385 12.80150 1861 ft 109 kts 303°
2026-04-25 15:25 55.56812 12.79003 1720 ft 111 kts 303°
2026-04-25 15:26 55.57236 12.77865 1561 ft 110 kts 302°
2026-04-25 15:26 55.57655 12.76738 1405 ft 109 kts 302°
2026-04-25 15:26 55.58095 12.75556 1257 ft 122 kts 302°
2026-04-25 15:26 55.58567 12.74287 1081 ft 125 kts 302°
2026-04-25 15:27 55.59049 12.72991 895 ft 126 kts 303°
2026-04-25 15:27 55.59527 12.71704 726 ft 124 kts 303°
2026-04-25 15:27 55.60489 12.69112 376 ft 126 kts 303°
2026-04-25 15:28 55.60966 12.67827 211 ft 125 kts 303°
2026-04-25 15:28 55.61445 12.66535 46 ft 124 kts 303°
2026-04-25 15:28 55.61849 12.65448 23 ft 72 kts 304°
2026-04-25 15:28 55.62026 12.64969 25 ft 23 kts 303°
2026-04-25 15:29 55.62123 12.64713 24 ft 28 kts 303°
2026-04-25 15:29 55.62205 12.64481 22 ft 15 kts 303°
2026-04-25 15:29 55.62281 12.64283 21 ft 25 kts 304°
2026-04-25 15:29 55.62401 12.63961 21 ft 30 kts 303°
2026-04-25 15:30 55.62504 12.63786 23 ft 16 kts 338°
2026-04-25 15:30 55.62595 12.63774 24 ft 7 kts 10°
2026-04-25 15:30 55.62616 12.63784 24 ft 0 kts 18°
2026-04-25 15:31 55.62629 12.63792 24 ft 3 kts 22°
2026-04-25 15:31 55.62634 12.63797 24 ft 2 kts 27°
2026-04-25 15:31 55.62681 12.63847 26 ft 10 kts 33°
2026-04-25 15:31 55.62738 12.63911 24 ft 9 kts 33°
2026-04-25 15:32 55.62793 12.63954 24 ft 8 kts
2026-04-25 15:32 55.62834 12.63899 24 ft 9 kts 299°
2026-04-25 15:32 55.62854 12.63777 25 ft 10 kts 284°
2026-04-25 15:33 55.62860 12.63605 24 ft 5 kts 267°
2026-04-25 15:33 55.62859 12.63574 24 ft 3 kts 268°
2026-04-25 15:33 55.62866 12.63565 26 ft 0 kts 333°
2026-04-25 15:33 55.62878 12.63581 24 ft 3 kts 39°
2026-04-25 15:34 55.62894 12.63606 24 ft 2 kts 41°
2026-04-25 15:34 55.62900 12.63615 24 ft 1 kts 41°
2026-04-25 15:34 55.62904 12.63622 24 ft 1 kts 41°
2026-04-25 15:34 55.62906 12.63625 26 ft 1 kts 42°
2026-04-25 15:35 55.62908 12.63628 25 ft 0 kts 42°